owner,sensor,date,latitude,longitude,sea_surface_height_above_sea_level,qcFlag 
DISL,ioos:station:DISL:DISL:1,2017-12-01T00:00:00Z,30.2513,-88.0778,2.27,1111122 
DISL,ioos:station:DISL:DISL:1,2017-12-01T01:30:00Z,30.2513,-88.0778,2.279,1111122 
DISL,ioos:station:DISL:DISL:1,2017-12-01T02:30:00Z,30.2513,-88.0778,2.288,1111122 
DISL,ioos:station:DISL:DISL:1,2017-12-01T03:30:00Z,30.2513,-88.0778,2.277,1111122 
DISL,ioos:station:DISL:DISL:1,2017-12-01T04:30:00Z,30.2513,-88.0778,2.234,1111122 
DISL,ioos:station:DISL:DISL:1,2017-12-01T05:30:00Z,30.2513,-88.0778,2.174,1111122 
DISL,ioos:station:DISL:DISL:1,2017-12-01T06:30:00Z,30.2513,-88.0778,2.124,1111122 
DISL,ioos:station:DISL:DISL:1,2017-12-01T07:30:00Z,30.2513,-88.0778,2.072,1111122 
DISL,ioos:station:DISL:DISL:1,2017-12-01T08:30:00Z,30.2513,-88.0778,2.038,1111122 
DISL,ioos:station:DISL:DISL:1,2017-12-01T09:30:00Z,30.2513,-88.0778,1.997,1111122 
DISL,ioos:station:DISL:DISL:1,2017-12-01T10:30:00Z,30.2513,-88.0778,1.958,1111122 
DISL,ioos:station:DISL:DISL:1,2017-12-01T11:30:00Z,30.2513,-88.0778,1.921,1111122 
DISL,ioos:station:DISL:DISL:1,2017-12-01T12:30:00Z,30.2513,-88.0778,1.913,1111122 
DISL,ioos:station:DISL:DISL:1,2017-12-01T13:30:00Z,30.2513,-88.0778,1.861,1111122 
DISL,ioos:station:DISL:DISL:1,2017-12-01T14:30:00Z,30.2513,-88.0778,1.923,1111122 
DISL,ioos:station:DISL:DISL:1,2017-12-01T15:30:00Z,30.2513,-88.0778,1.955,1111122 
DISL,ioos:station:DISL:DISL:1,2017-12-01T16:30:00Z,30.2513,-88.0778,1.994,1111122 
DISL,ioos:station:DISL:DISL:1,2017-12-01T17:30:00Z,30.2513,-88.0778,2.016,1111122 
DISL,ioos:station:DISL:DISL:1,2017-12-01T18:30:00Z,30.2513,-88.0778,2.059,1111122 
DISL,ioos:station:DISL:DISL:1,2017-12-01T19:30:00Z,30.2513,-88.0778,2.088,1111122 
DISL,ioos:station:DISL:DISL:1,2017-12-01T20:30:00Z,30.2513,-88.0778,2.141,1111122 
DISL,ioos:station:DISL:DISL:1,2017-12-01T21:30:00Z,30.2513,-88.0778,2.181,1111122 
DISL,ioos:station:DISL:DISL:1,2017-12-01T22:30:00Z,30.2513,-88.0778,2.232,1111122 
DISL,ioos:station:DISL:DISL:1,2017-12-01T23:30:00Z,30.2513,-88.0778,2.288,1111122 
DISL,ioos:station:DISL:DISL:1,2017-12-02T00:30:00Z,30.2513,-88.0778,2.336,1111122 
DISL,ioos:station:DISL:DISL:1,2017-12-02T01:30:00Z,30.2513,-88.0778,2.364,1111122 
DISL,ioos:station:DISL:DISL:1,2017-12-02T02:30:00Z,30.2513,-88.0778,2.368,1111122 
DISL,ioos:station:DISL:DISL:1,2017-12-02T03:30:00Z,30.2513,-88.0778,2.345,1111122 
DISL,ioos:station:DISL:DISL:1,2017-12-02T04:30:00Z,30.2513,-88.0778,2.299,1111122 
DISL,ioos:station:DISL:DISL:1,2017-12-02T05:00:00Z,30.2513,-88.0778,2.271,1111122 
DISL,ioos:station:DISL:DISL:1,2017-12-02T06:30:00Z,30.2513,-88.0778,2.195,1111122 
DISL,ioos:station:DISL:DISL:1,2017-12-02T07:00:00Z,30.2513,-88.0778,2.165,1111122 
DISL,ioos:station:DISL:DISL:1,2017-12-02T08:30:00Z,30.2513,-88.0778,2.061,1111122 
DISL,ioos:station:DISL:DISL:1,2017-12-02T10:30:00Z,30.2513,-88.0778,1.969,1111122 
DISL,ioos:station:DISL:DISL:1,2017-12-02T12:30:00Z,30.2513,-88.0778,1.911,1111122 
DISL,ioos:station:DISL:DISL:1,2017-12-02T13:30:00Z,30.2513,-88.0778,1.879,1111122 
DISL,ioos:station:DISL:DISL:1,2017-12-02T14:30:00Z,30.2513,-88.0778,1.912,1111122 
DISL,ioos:station:DISL:DISL:1,2017-12-02T15:30:00Z,30.2513,-88.0778,1.922,1111122 
DISL,ioos:station:DISL:DISL:1,2017-12-02T16:30:00Z,30.2513,-88.0778,1.96,1111122 
DISL,ioos:station:DISL:DISL:1,2017-12-02T17:30:00Z,30.2513,-88.0778,1.985,1111122 
DISL,ioos:station:DISL:DISL:1,2017-12-02T18:30:00Z,30.2513,-88.0778,2.046,1111122 
DISL,ioos:station:DISL:DISL:1,2017-12-02T19:30:00Z,30.2513,-88.0778,2.082,1111122 
DISL,ioos:station:DISL:DISL:1,2017-12-02T20:30:00Z,30.2513,-88.0778,2.109,1111122 
DISL,ioos:station:DISL:DISL:1,2017-12-02T21:30:00Z,30.2513,-88.0778,2.154,1111122 
DISL,ioos:station:DISL:DISL:1,2017-12-02T22:30:00Z,30.2513,-88.0778,2.223,1111122 
DISL,ioos:station:DISL:DISL:1,2017-12-02T23:30:00Z,30.2513,-88.0778,2.248,1111122 
DISL,ioos:station:DISL:DISL:1,2017-12-03T00:30:00Z,30.2513,-88.0778,2.335,1111122 
DISL,ioos:station:DISL:DISL:1,2017-12-03T01:30:00Z,30.2513,-88.0778,2.362,1111122 
DISL,ioos:station:DISL:DISL:1,2017-12-03T02:30:00Z,30.2513,-88.0778,2.383,1111122 
DISL,ioos:station:DISL:DISL:1,2017-12-03T03:30:00Z,30.2513,-88.0778,2.405,1111122 
DISL,ioos:station:DISL:DISL:1,2017-12-03T04:00:00Z,30.2513,-88.0778,2.408,1111122 
DISL,ioos:station:DISL:DISL:1,2017-12-03T05:30:00Z,30.2513,-88.0778,2.323,1111122 
DISL,ioos:station:DISL:DISL:1,2017-12-03T06:30:00Z,30.2513,-88.0778,2.262,1111122 
DISL,ioos:station:DISL:DISL:1,2017-12-03T07:30:00Z,30.2513,-88.0778,2.187,1111122 
DISL,ioos:station:DISL:DISL:1,2017-12-03T08:30:00Z,30.2513,-88.0778,2.108,1111122 
DISL,ioos:station:DISL:DISL:1,2017-12-03T09:30:00Z,30.2513,-88.0778,2.052,1111122 
DISL,ioos:station:DISL:DISL:1,2017-12-03T10:30:00Z,30.2513,-88.0778,2.003,1111122 
DISL,ioos:station:DISL:DISL:1,2017-12-03T11:30:00Z,30.2513,-88.0778,1.956,1111122 
DISL,ioos:station:DISL:DISL:1,2017-12-03T12:30:00Z,30.2513,-88.0778,1.917,1111122 
DISL,ioos:station:DISL:DISL:1,2017-12-03T13:30:00Z,30.2513,-88.0778,1.896,1111122 
DISL,ioos:station:DISL:DISL:1,2017-12-03T14:30:00Z,30.2513,-88.0778,1.882,1111122 
DISL,ioos:station:DISL:DISL:1,2017-12-03T15:30:00Z,30.2513,-88.0778,1.898,1111122 
DISL,ioos:station:DISL:DISL:1,2017-12-03T16:30:00Z,30.2513,-88.0778,1.911,1111122 
DISL,ioos:station:DISL:DISL:1,2017-12-03T17:30:00Z,30.2513,-88.0778,1.948,1111122 
DISL,ioos:station:DISL:DISL:1,2017-12-03T18:30:00Z,30.2513,-88.0778,1.991,1111122 
DISL,ioos:station:DISL:DISL:1,2017-12-03T19:30:00Z,30.2513,-88.0778,2.052,1111122 
DISL,ioos:station:DISL:DISL:1,2017-12-03T20:30:00Z,30.2513,-88.0778,2.097,1111122 
DISL,ioos:station:DISL:DISL:1,2017-12-03T21:30:00Z,30.2513,-88.0778,2.118,1111122 
DISL,ioos:station:DISL:DISL:1,2017-12-03T22:30:00Z,30.2513,-88.0778,2.231,1111122 
DISL,ioos:station:DISL:DISL:1,2017-12-03T23:30:00Z,30.2513,-88.0778,2.31,1111122 
DISL,ioos:station:DISL:DISL:1,2017-12-04T00:30:00Z,30.2513,-88.0778,2.365,1111122 
DISL,ioos:station:DISL:DISL:1,2017-12-04T01:30:00Z,30.2513,-88.0778,2.42,1111122 
DISL,ioos:station:DISL:DISL:1,2017-12-04T02:00:00Z,30.2513,-88.0778,2.43,1111122 
DISL,ioos:station:DISL:DISL:1,2017-12-04T03:30:00Z,30.2513,-88.0778,2.471,1111122 
DISL,ioos:station:DISL:DISL:1,2017-12-04T04:30:00Z,30.2513,-88.0778,2.449,1111122 
DISL,ioos:station:DISL:DISL:1,2017-12-04T05:30:00Z,30.2513,-88.0778,2.436,1111122 
DISL,ioos:station:DISL:DISL:1,2017-12-04T06:30:00Z,30.2513,-88.0778,2.368,1111122 
DISL,ioos:station:DISL:DISL:1,2017-12-04T07:30:00Z,30.2513,-88.0778,2.28,1111122 
DISL,ioos:station:DISL:DISL:1,2017-12-04T08:30:00Z,30.2513,-88.0778,2.216,1111122 
DISL,ioos:station:DISL:DISL:1,2017-12-04T09:30:00Z,30.2513,-88.0778,2.111,1111122 
DISL,ioos:station:DISL:DISL:1,2017-12-04T10:30:00Z,30.2513,-88.0778,2.046,1111122 
DISL,ioos:station:DISL:DISL:1,2017-12-04T11:30:00Z,30.2513,-88.0778,1.998,1111122 
DISL,ioos:station:DISL:DISL:1,2017-12-04T12:30:00Z,30.2513,-88.0778,1.957,1111122 
DISL,ioos:station:DISL:DISL:1,2017-12-04T13:30:00Z,30.2513,-88.0778,1.911,1111122 
DISL,ioos:station:DISL:DISL:1,2017-12-04T14:30:00Z,30.2513,-88.0778,1.893,1111122 
DISL,ioos:station:DISL:DISL:1,2017-12-04T15:30:00Z,30.2513,-88.0778,1.898,1111122 
DISL,ioos:station:DISL:DISL:1,2017-12-04T16:30:00Z,30.2513,-88.0778,1.921,1111122 
DISL,ioos:station:DISL:DISL:1,2017-12-04T17:30:00Z,30.2513,-88.0778,1.926,1111122 
DISL,ioos:station:DISL:DISL:1,2017-12-04T18:30:00Z,30.2513,-88.0778,1.971,1111122 
DISL,ioos:station:DISL:DISL:1,2017-12-04T19:30:00Z,30.2513,-88.0778,2.015,1111122 
DISL,ioos:station:DISL:DISL:1,2017-12-04T20:30:00Z,30.2513,-88.0778,2.086,1111122 
DISL,ioos:station:DISL:DISL:1,2017-12-04T21:30:00Z,30.2513,-88.0778,2.138,1111122 
DISL,ioos:station:DISL:DISL:1,2017-12-04T22:30:00Z,30.2513,-88.0778,2.199,1111122 
DISL,ioos:station:DISL:DISL:1,2017-12-04T23:30:00Z,30.2513,-88.0778,2.271,1111122 
DISL,ioos:station:DISL:DISL:1,2017-12-05T00:30:00Z,30.2513,-88.0778,2.361,1111122 
DISL,ioos:station:DISL:DISL:1,2017-12-05T01:30:00Z,30.2513,-88.0778,2.446,1111122 
DISL,ioos:station:DISL:DISL:1,2017-12-05T02:30:00Z,30.2513,-88.0778,2.502,1111122 
DISL,ioos:station:DISL:DISL:1,2017-12-05T03:30:00Z,30.2513,-88.0778,2.534,1111122 
DISL,ioos:station:DISL:DISL:1,2017-12-05T04:30:00Z,30.2513,-88.0778,2.571,1111122 
DISL,ioos:station:DISL:DISL:1,2017-12-05T05:30:00Z,30.2513,-88.0778,2.567,1111122 
DISL,ioos:station:DISL:DISL:1,2017-12-05T06:30:00Z,30.2513,-88.0778,2.536,1111122 
DISL,ioos:station:DISL:DISL:1,2017-12-05T07:30:00Z,30.2513,-88.0778,2.465,1111122 
DISL,ioos:station:DISL:DISL:1,2017-12-05T08:30:00Z,30.2513,-88.0778,2.39,1111122 
DISL,ioos:station:DISL:DISL:1,2017-12-05T09:30:00Z,30.2513,-88.0778,2.296,1111122 
DISL,ioos:station:DISL:DISL:1,2017-12-05T10:30:00Z,30.2513,-88.0778,2.228,1111122 
DISL,ioos:station:DISL:DISL:1,2017-12-05T11:30:00Z,30.2513,-88.0778,2.155,1111122 
DISL,ioos:station:DISL:DISL:1,2017-12-05T12:30:00Z,30.2513,-88.0778,2.104,1111122 
DISL,ioos:station:DISL:DISL:1,2017-12-05T13:30:00Z,30.2513,-88.0778,2.056,1111122 
DISL,ioos:station:DISL:DISL:1,2017-12-05T14:30:00Z,30.2513,-88.0778,1.989,1111122 
DISL,ioos:station:DISL:DISL:1,2017-12-05T15:30:00Z,30.2513,-88.0778,1.962,1111122 
DISL,ioos:station:DISL:DISL:1,2017-12-05T16:30:00Z,30.2513,-88.0778,1.941,1111122 
DISL,ioos:station:DISL:DISL:1,2017-12-05T17:30:00Z,30.2513,-88.0778,1.951,1111122 
DISL,ioos:station:DISL:DISL:1,2017-12-05T18:30:00Z,30.2513,-88.0778,1.967,1111122 
DISL,ioos:station:DISL:DISL:1,2017-12-05T19:30:00Z,30.2513,-88.0778,1.996,1111122 
DISL,ioos:station:DISL:DISL:1,2017-12-05T20:30:00Z,30.2513,-88.0778,2.067,1111122 
DISL,ioos:station:DISL:DISL:1,2017-12-05T21:30:00Z,30.2513,-88.0778,2.098,1111122 
DISL,ioos:station:DISL:DISL:1,2017-12-05T22:30:00Z,30.2513,-88.0778,2.153,1111122 
DISL,ioos:station:DISL:DISL:1,2017-12-05T23:30:00Z,30.2513,-88.0778,2.23,1111122 
DISL,ioos:station:DISL:DISL:1,2017-12-06T00:30:00Z,30.2513,-88.0778,2.298,1111122 
DISL,ioos:station:DISL:DISL:1,2017-12-06T01:30:00Z,30.2513,-88.0778,2.403,1111122 
DISL,ioos:station:DISL:DISL:1,2017-12-06T02:30:00Z,30.2513,-88.0778,2.449,1111122 
DISL,ioos:station:DISL:DISL:1,2017-12-06T03:30:00Z,30.2513,-88.0778,2.504,1111122 
DISL,ioos:station:DISL:DISL:1,2017-12-06T04:30:00Z,30.2513,-88.0778,2.567,1111122 
DISL,ioos:station:DISL:DISL:1,2017-12-06T05:30:00Z,30.2513,-88.0778,2.528,1111122 
DISL,ioos:station:DISL:DISL:1,2017-12-06T06:30:00Z,30.2513,-88.0778,2.609,1111122 
DISL,ioos:station:DISL:DISL:1,2017-12-06T07:30:00Z,30.2513,-88.0778,2.409,1111122 
DISL,ioos:station:DISL:DISL:1,2017-12-06T08:30:00Z,30.2513,-88.0778,2.367,1111122 
DISL,ioos:station:DISL:DISL:1,2017-12-06T09:30:00Z,30.2513,-88.0778,2.291,1111122 
DISL,ioos:station:DISL:DISL:1,2017-12-06T10:30:00Z,30.2513,-88.0778,2.21,1111122 
DISL,ioos:station:DISL:DISL:1,2017-12-06T11:30:00Z,30.2513,-88.0778,2.135,1111122 
DISL,ioos:station:DISL:DISL:1,2017-12-06T12:30:00Z,30.2513,-88.0778,2.022,1111122 
DISL,ioos:station:DISL:DISL:1,2017-12-06T13:00:00Z,30.2513,-88.0778,2.001,1111122 
DISL,ioos:station:DISL:DISL:1,2017-12-06T14:00:00Z,30.2513,-88.0778,1.981,1111122 
DISL,ioos:station:DISL:DISL:1,2017-12-06T15:30:00Z,30.2513,-88.0778,1.929,1111122 
DISL,ioos:station:DISL:DISL:1,2017-12-06T16:00:00Z,30.2513,-88.0778,1.912,1111122 
DISL,ioos:station:DISL:DISL:1,2017-12-06T17:30:00Z,30.2513,-88.0778,1.828,1111122 
DISL,ioos:station:DISL:DISL:1,2017-12-06T18:30:00Z,30.2513,-88.0778,1.797,1111122 
DISL,ioos:station:DISL:DISL:1,2017-12-06T19:30:00Z,30.2513,-88.0778,1.859,1111122 
DISL,ioos:station:DISL:DISL:1,2017-12-06T20:30:00Z,30.2513,-88.0778,1.882,1111122 
DISL,ioos:station:DISL:DISL:1,2017-12-06T21:30:00Z,30.2513,-88.0778,1.935,1111122 
DISL,ioos:station:DISL:DISL:1,2017-12-06T22:30:00Z,30.2513,-88.0778,2.02,1111122 
DISL,ioos:station:DISL:DISL:1,2017-12-06T23:30:00Z,30.2513,-88.0778,2.061,1111122 
DISL,ioos:station:DISL:DISL:1,2017-12-07T00:30:00Z,30.2513,-88.0778,2.115,1111122 
DISL,ioos:station:DISL:DISL:1,2017-12-07T01:30:00Z,30.2513,-88.0778,2.167,1111122 
DISL,ioos:station:DISL:DISL:1,2017-12-07T02:30:00Z,30.2513,-88.0778,2.186,1111122 
DISL,ioos:station:DISL:DISL:1,2017-12-07T03:30:00Z,30.2513,-88.0778,2.21,1111122 
DISL,ioos:station:DISL:DISL:1,2017-12-07T04:30:00Z,30.2513,-88.0778,2.283,1111122 
DISL,ioos:station:DISL:DISL:1,2017-12-07T05:30:00Z,30.2513,-88.0778,2.31,1111122 
DISL,ioos:station:DISL:DISL:1,2017-12-07T06:30:00Z,30.2513,-88.0778,2.332,1111122 
DISL,ioos:station:DISL:DISL:1,2017-12-07T07:30:00Z,30.2513,-88.0778,2.327,1111122 
DISL,ioos:station:DISL:DISL:1,2017-12-07T08:30:00Z,30.2513,-88.0778,2.28,1111122 
DISL,ioos:station:DISL:DISL:1,2017-12-07T09:30:00Z,30.2513,-88.0778,2.245,1111122 
DISL,ioos:station:DISL:DISL:1,2017-12-07T10:30:00Z,30.2513,-88.0778,2.194,1111122 
DISL,ioos:station:DISL:DISL:1,2017-12-07T11:30:00Z,30.2513,-88.0778,2.142,1111122 
DISL,ioos:station:DISL:DISL:1,2017-12-07T12:30:00Z,30.2513,-88.0778,2.069,1111122 
DISL,ioos:station:DISL:DISL:1,2017-12-07T13:30:00Z,30.2513,-88.0778,2.033,1111122 
DISL,ioos:station:DISL:DISL:1,2017-12-07T14:30:00Z,30.2513,-88.0778,1.934,1111122 
DISL,ioos:station:DISL:DISL:1,2017-12-07T15:30:00Z,30.2513,-88.0778,1.867,1111122 
DISL,ioos:station:DISL:DISL:1,2017-12-07T16:30:00Z,30.2513,-88.0778,1.865,1111122 
DISL,ioos:station:DISL:DISL:1,2017-12-07T17:30:00Z,30.2513,-88.0778,1.843,1111122 
DISL,ioos:station:DISL:DISL:1,2017-12-07T18:30:00Z,30.2513,-88.0778,1.791,1111122 
DISL,ioos:station:DISL:DISL:1,2017-12-07T19:30:00Z,30.2513,-88.0778,1.887,1111122 
DISL,ioos:station:DISL:DISL:1,2017-12-07T20:00:00Z,30.2513,-88.0778,1.866,1111122 
DISL,ioos:station:DISL:DISL:1,2017-12-07T22:30:00Z,30.2513,-88.0778,1.977,1111122 
DISL,ioos:station:DISL:DISL:1,2017-12-07T23:30:00Z,30.2513,-88.0778,2.028,1111122 
DISL,ioos:station:DISL:DISL:1,2017-12-08T00:30:00Z,30.2513,-88.0778,2.024,1111122 
DISL,ioos:station:DISL:DISL:1,2017-12-08T01:30:00Z,30.2513,-88.0778,2.072,1111122 
DISL,ioos:station:DISL:DISL:1,2017-12-08T02:30:00Z,30.2513,-88.0778,2.175,1111122 
DISL,ioos:station:DISL:DISL:1,2017-12-08T03:30:00Z,30.2513,-88.0778,2.24,1111122 
DISL,ioos:station:DISL:DISL:1,2017-12-08T04:00:00Z,30.2513,-88.0778,2.259,1111122 
DISL,ioos:station:DISL:DISL:1,2017-12-08T05:30:00Z,30.2513,-88.0778,2.314,1111122 
DISL,ioos:station:DISL:DISL:1,2017-12-08T06:30:00Z,30.2513,-88.0778,2.317,1111122 
DISL,ioos:station:DISL:DISL:1,2017-12-08T07:30:00Z,30.2513,-88.0778,2.339,1111122 
DISL,ioos:station:DISL:DISL:1,2017-12-08T08:30:00Z,30.2513,-88.0778,2.348,1111122 
DISL,ioos:station:DISL:DISL:1,2017-12-08T09:30:00Z,30.2513,-88.0778,2.312,1111122 
DISL,ioos:station:DISL:DISL:1,2017-12-08T10:30:00Z,30.2513,-88.0778,2.237,1111122 
DISL,ioos:station:DISL:DISL:1,2017-12-08T11:30:00Z,30.2513,-88.0778,2.201,1111122 
DISL,ioos:station:DISL:DISL:1,2017-12-08T12:30:00Z,30.2513,-88.0778,2.179,1111122 
DISL,ioos:station:DISL:DISL:1,2017-12-08T13:30:00Z,30.2513,-88.0778,2.09,1111122 
DISL,ioos:station:DISL:DISL:1,2017-12-08T14:30:00Z,30.2513,-88.0778,2.043,1111122 
DISL,ioos:station:DISL:DISL:1,2017-12-08T15:30:00Z,30.2513,-88.0778,1.96,1111122 
DISL,ioos:station:DISL:DISL:1,2017-12-08T16:30:00Z,30.2513,-88.0778,1.928,1111122 
DISL,ioos:station:DISL:DISL:1,2017-12-08T17:30:00Z,30.2513,-88.0778,1.909,1111122 
DISL,ioos:station:DISL:DISL:1,2017-12-08T18:30:00Z,30.2513,-88.0778,1.911,1111122 
DISL,ioos:station:DISL:DISL:1,2017-12-08T19:30:00Z,30.2513,-88.0778,1.889,1111122 
DISL,ioos:station:DISL:DISL:1,2017-12-08T20:30:00Z,30.2513,-88.0778,1.912,1111122 
DISL,ioos:station:DISL:DISL:1,2017-12-08T21:30:00Z,30.2513,-88.0778,1.957,1111122 
DISL,ioos:station:DISL:DISL:1,2017-12-08T22:30:00Z,30.2513,-88.0778,2.014,1111122 
DISL,ioos:station:DISL:DISL:1,2017-12-08T23:30:00Z,30.2513,-88.0778,2.027,1111122 
DISL,ioos:station:DISL:DISL:1,2017-12-09T00:30:00Z,30.2513,-88.0778,2.049,1111122 
DISL,ioos:station:DISL:DISL:1,2017-12-09T01:30:00Z,30.2513,-88.0778,2.056,1111122 
DISL,ioos:station:DISL:DISL:1,2017-12-09T02:30:00Z,30.2513,-88.0778,2.125,1111122 
DISL,ioos:station:DISL:DISL:1,2017-12-09T03:30:00Z,30.2513,-88.0778,2.161,1111122 
DISL,ioos:station:DISL:DISL:1,2017-12-09T04:30:00Z,30.2513,-88.0778,2.189,1111122 
DISL,ioos:station:DISL:DISL:1,2017-12-09T05:30:00Z,30.2513,-88.0778,2.222,1111122 
DISL,ioos:station:DISL:DISL:1,2017-12-09T06:30:00Z,30.2513,-88.0778,2.245,1111122 
DISL,ioos:station:DISL:DISL:1,2017-12-09T07:30:00Z,30.2513,-88.0778,2.188,1111122 
DISL,ioos:station:DISL:DISL:1,2017-12-09T08:30:00Z,30.2513,-88.0778,2.171,1111122 
DISL,ioos:station:DISL:DISL:1,2017-12-09T09:30:00Z,30.2513,-88.0778,2.167,1111122 
DISL,ioos:station:DISL:DISL:1,2017-12-09T10:30:00Z,30.2513,-88.0778,2.117,1111122 
DISL,ioos:station:DISL:DISL:1,2017-12-09T11:30:00Z,30.2513,-88.0778,2.075,1111122 
DISL,ioos:station:DISL:DISL:1,2017-12-09T12:30:00Z,30.2513,-88.0778,2.018,1111122 
DISL,ioos:station:DISL:DISL:1,2017-12-09T13:30:00Z,30.2513,-88.0778,1.941,1111122 
DISL,ioos:station:DISL:DISL:1,2017-12-09T14:30:00Z,30.2513,-88.0778,1.928,1111122 
DISL,ioos:station:DISL:DISL:1,2017-12-09T15:30:00Z,30.2513,-88.0778,1.871,1111122 
DISL,ioos:station:DISL:DISL:1,2017-12-09T16:30:00Z,30.2513,-88.0778,1.832,1111122 
DISL,ioos:station:DISL:DISL:1,2017-12-09T17:30:00Z,30.2513,-88.0778,1.819,1111122 
DISL,ioos:station:DISL:DISL:1,2017-12-09T18:30:00Z,30.2513,-88.0778,1.791,1111122 
DISL,ioos:station:DISL:DISL:1,2017-12-09T19:30:00Z,30.2513,-88.0778,1.785,1111122 
DISL,ioos:station:DISL:DISL:1,2017-12-09T20:30:00Z,30.2513,-88.0778,1.78,1111122 
DISL,ioos:station:DISL:DISL:1,2017-12-09T21:30:00Z,30.2513,-88.0778,1.797,1111122 
DISL,ioos:station:DISL:DISL:1,2017-12-09T22:30:00Z,30.2513,-88.0778,1.811,1111122 
DISL,ioos:station:DISL:DISL:1,2017-12-09T23:30:00Z,30.2513,-88.0778,1.833,1111122 
DISL,ioos:station:DISL:DISL:1,2017-12-10T00:00:00Z,30.2513,-88.0778,1.84,1111122 
DISL,ioos:station:DISL:DISL:1,2017-12-10T01:00:00Z,30.2513,-88.0778,1.872,1111122 
DISL,ioos:station:DISL:DISL:1,2017-12-10T02:30:00Z,30.2513,-88.0778,1.886,1111122 
DISL,ioos:station:DISL:DISL:1,2017-12-10T03:30:00Z,30.2513,-88.0778,1.884,1111122 
DISL,ioos:station:DISL:DISL:1,2017-12-10T04:30:00Z,30.2513,-88.0778,1.893,1111122 
DISL,ioos:station:DISL:DISL:1,2017-12-10T05:30:00Z,30.2513,-88.0778,1.913,1111122 
DISL,ioos:station:DISL:DISL:1,2017-12-10T06:30:00Z,30.2513,-88.0778,1.914,1111122 
DISL,ioos:station:DISL:DISL:1,2017-12-10T07:30:00Z,30.2513,-88.0778,1.913,1111122 
DISL,ioos:station:DISL:DISL:1,2017-12-10T08:00:00Z,30.2513,-88.0778,1.912,1111122 
DISL,ioos:station:DISL:DISL:1,2017-12-10T09:30:00Z,30.2513,-88.0778,1.904,1111122 
DISL,ioos:station:DISL:DISL:1,2017-12-10T10:30:00Z,30.2513,-88.0778,1.893,1111122 
DISL,ioos:station:DISL:DISL:1,2017-12-10T11:30:00Z,30.2513,-88.0778,1.858,1111122 
DISL,ioos:station:DISL:DISL:1,2017-12-10T12:30:00Z,30.2513,-88.0778,1.828,1111122 
DISL,ioos:station:DISL:DISL:1,2017-12-10T13:30:00Z,30.2513,-88.0778,1.801,1111122 
DISL,ioos:station:DISL:DISL:1,2017-12-10T14:30:00Z,30.2513,-88.0778,1.759,1111122 
DISL,ioos:station:DISL:DISL:1,2017-12-10T15:30:00Z,30.2513,-88.0778,1.746,1111122 
DISL,ioos:station:DISL:DISL:1,2017-12-10T16:30:00Z,30.2513,-88.0778,1.722,1111122 
DISL,ioos:station:DISL:DISL:1,2017-12-10T17:30:00Z,30.2513,-88.0778,1.724,1111122 
DISL,ioos:station:DISL:DISL:1,2017-12-10T18:30:00Z,30.2513,-88.0778,1.72,1111122 
DISL,ioos:station:DISL:DISL:1,2017-12-10T19:30:00Z,30.2513,-88.0778,1.749,1111122 
DISL,ioos:station:DISL:DISL:1,2017-12-10T20:30:00Z,30.2513,-88.0778,1.77,1111122 
DISL,ioos:station:DISL:DISL:1,2017-12-10T21:30:00Z,30.2513,-88.0778,1.79,1111122 
DISL,ioos:station:DISL:DISL:1,2017-12-10T22:30:00Z,30.2513,-88.0778,1.816,1111122 
DISL,ioos:station:DISL:DISL:1,2017-12-10T23:30:00Z,30.2513,-88.0778,1.835,1111122 
DISL,ioos:station:DISL:DISL:1,2017-12-11T00:30:00Z,30.2513,-88.0778,1.873,1111122 
DISL,ioos:station:DISL:DISL:1,2017-12-11T01:30:00Z,30.2513,-88.0778,1.913,1111122 
DISL,ioos:station:DISL:DISL:1,2017-12-11T02:30:00Z,30.2513,-88.0778,1.917,1111122 
DISL,ioos:station:DISL:DISL:1,2017-12-11T03:30:00Z,30.2513,-88.0778,1.944,1111122 
DISL,ioos:station:DISL:DISL:1,2017-12-11T04:30:00Z,30.2513,-88.0778,1.921,1111122 
DISL,ioos:station:DISL:DISL:1,2017-12-11T05:30:00Z,30.2513,-88.0778,1.915,1111122 
DISL,ioos:station:DISL:DISL:1,2017-12-11T06:30:00Z,30.2513,-88.0778,1.9,1111122 
DISL,ioos:station:DISL:DISL:1,2017-12-11T07:30:00Z,30.2513,-88.0778,1.867,1111122 
DISL,ioos:station:DISL:DISL:1,2017-12-11T08:30:00Z,30.2513,-88.0778,1.849,1111122 
DISL,ioos:station:DISL:DISL:1,2017-12-11T09:30:00Z,30.2513,-88.0778,1.817,1111122 
DISL,ioos:station:DISL:DISL:1,2017-12-11T10:30:00Z,30.2513,-88.0778,1.83,1111122 
DISL,ioos:station:DISL:DISL:1,2017-12-11T11:30:00Z,30.2513,-88.0778,1.774,1111122 
DISL,ioos:station:DISL:DISL:1,2017-12-11T12:30:00Z,30.2513,-88.0778,1.782,1111122 
DISL,ioos:station:DISL:DISL:1,2017-12-11T13:30:00Z,30.2513,-88.0778,1.778,1111122 
DISL,ioos:station:DISL:DISL:1,2017-12-11T14:30:00Z,30.2513,-88.0778,1.794,1111122 
DISL,ioos:station:DISL:DISL:1,2017-12-11T15:30:00Z,30.2513,-88.0778,1.765,1111122 
DISL,ioos:station:DISL:DISL:1,2017-12-11T16:30:00Z,30.2513,-88.0778,1.758,1111122 
DISL,ioos:station:DISL:DISL:1,2017-12-11T17:30:00Z,30.2513,-88.0778,1.763,1111122 
DISL,ioos:station:DISL:DISL:1,2017-12-11T18:30:00Z,30.2513,-88.0778,1.822,1111122 
DISL,ioos:station:DISL:DISL:1,2017-12-11T19:30:00Z,30.2513,-88.0778,1.805,1111122 
DISL,ioos:station:DISL:DISL:1,2017-12-11T20:30:00Z,30.2513,-88.0778,1.881,1111122 
DISL,ioos:station:DISL:DISL:1,2017-12-11T21:30:00Z,30.2513,-88.0778,1.854,1111122 
DISL,ioos:station:DISL:DISL:1,2017-12-11T22:30:00Z,30.2513,-88.0778,1.897,1111122 
DISL,ioos:station:DISL:DISL:1,2017-12-11T23:30:00Z,30.2513,-88.0778,1.924,1111122 
DISL,ioos:station:DISL:DISL:1,2017-12-12T00:30:00Z,30.2513,-88.0778,1.953,1111122 
DISL,ioos:station:DISL:DISL:1,2017-12-12T01:30:00Z,30.2513,-88.0778,1.977,1111122 
DISL,ioos:station:DISL:DISL:1,2017-12-12T02:30:00Z,30.2513,-88.0778,1.999,1111122 
DISL,ioos:station:DISL:DISL:1,2017-12-12T03:30:00Z,30.2513,-88.0778,2.023,1111122 
DISL,ioos:station:DISL:DISL:1,2017-12-12T04:30:00Z,30.2513,-88.0778,2.012,1111122 
DISL,ioos:station:DISL:DISL:1,2017-12-12T05:30:00Z,30.2513,-88.0778,2.0,1111122 
DISL,ioos:station:DISL:DISL:1,2017-12-12T06:30:00Z,30.2513,-88.0778,1.982,1111122 
DISL,ioos:station:DISL:DISL:1,2017-12-12T07:30:00Z,30.2513,-88.0778,1.981,1111122 
DISL,ioos:station:DISL:DISL:1,2017-12-12T08:30:00Z,30.2513,-88.0778,1.952,1111122 
DISL,ioos:station:DISL:DISL:1,2017-12-12T09:30:00Z,30.2513,-88.0778,1.927,1111122 
DISL,ioos:station:DISL:DISL:1,2017-12-12T10:30:00Z,30.2513,-88.0778,1.923,1111122 
DISL,ioos:station:DISL:DISL:1,2017-12-12T11:30:00Z,30.2513,-88.0778,1.924,1111122 
DISL,ioos:station:DISL:DISL:1,2017-12-12T12:30:00Z,30.2513,-88.0778,1.911,1111122 
DISL,ioos:station:DISL:DISL:1,2017-12-12T13:30:00Z,30.2513,-88.0778,1.89,1111122 
DISL,ioos:station:DISL:DISL:1,2017-12-12T14:30:00Z,30.2513,-88.0778,1.881,1111122 
DISL,ioos:station:DISL:DISL:1,2017-12-12T15:30:00Z,30.2513,-88.0778,1.884,1111122 
DISL,ioos:station:DISL:DISL:1,2017-12-12T16:30:00Z,30.2513,-88.0778,1.854,1111122 
DISL,ioos:station:DISL:DISL:1,2017-12-12T17:30:00Z,30.2513,-88.0778,1.83,1111122 
DISL,ioos:station:DISL:DISL:1,2017-12-12T18:30:00Z,30.2513,-88.0778,1.838,1111122 
DISL,ioos:station:DISL:DISL:1,2017-12-12T19:30:00Z,30.2513,-88.0778,1.86,1111122 
DISL,ioos:station:DISL:DISL:1,2017-12-12T20:30:00Z,30.2513,-88.0778,1.897,1111122 
DISL,ioos:station:DISL:DISL:1,2017-12-12T21:30:00Z,30.2513,-88.0778,1.921,1111122 
DISL,ioos:station:DISL:DISL:1,2017-12-12T22:30:00Z,30.2513,-88.0778,1.938,1111122 
DISL,ioos:station:DISL:DISL:1,2017-12-13T09:30:00Z,30.2513,-88.0778,1.785,1111122 
DISL,ioos:station:DISL:DISL:1,2017-12-13T10:30:00Z,30.2513,-88.0778,1.78,1111122 
DISL,ioos:station:DISL:DISL:1,2017-12-13T11:30:00Z,30.2513,-88.0778,1.733,1111122 
DISL,ioos:station:DISL:DISL:1,2017-12-13T12:30:00Z,30.2513,-88.0778,1.77,1111122 